FW7092 Weather Reports


time (UTC)temp
C
wind
direction
speed
KPH
gust
KPH
rain 1hr
cm
rain 24hr
cm
rain mn
cm
humidity
%
barometer
mb
20210518213032 23 70 6.4 16.1 0.00 0.00 0.00 48 1024.8
20210518212527 23 50 1.6 11.3 0.00 0.00 0.00 47 1024.8
20210518212027 24 80 4.8 16.1 0.00 0.00 0.00 47 1024.5
20210518211519 25 75 6.4 16.1 0.00 0.00 0.00 46 1024.8
20210518211015 25 69 6.4 16.1 0.00 0.00 0.00 46 1024.8
20210518210515 26 346 4.8 11.3 0.00 0.00 0.00 47 1024.8
20210518210011 25 122 6.4 8.0 0.00 0.00 0.00 47 1025.1
20210518205505 25 77 6.4 16.1 0.00 0.00 0.00 47 1024.8
20210518205003 25 104 3.2 8.0 0.00 0.00 0.00 48 1024.8
20210518204459 25 57 1.6 8.0 0.00 0.00 0.00 49 1025.1
20210518203959 25 111 3.2 8.0 0.00 0.00 0.00 49 1024.8
20210518203455 25 107 6.4 11.3 0.00 0.00 0.00 49 1024.8
20210518202953 25 95 11.3 16.1 0.00 0.00 0.00 48 1025.1
20210518202445 25 117 4.8 16.1 0.00 0.00 0.00 48 1025.1
20210518201941 25 141 0.0 11.3 0.00 0.00 0.00 48 1025.1
20210518201440 26 67 8.0 8.0 0.00 0.00 0.00 44 1025.1
20210518200935 26 185 3.2 4.8 0.00 0.00 0.00 44 1025.1
20210518200432 26 205 0.0 0.0 0.00 0.00 0.00 44 1025.1
20210518195927 27 191 3.2 8.0 0.00 0.00 0.00 45 1025.5
20210518195426 26 249 0.0 4.8 0.00 0.00 0.00 45 1025.5
20210518194925 26 231 0.0 4.8 0.00 0.00 0.00 45 1025.1
20210518194419 26 204 0.0 4.8 0.00 0.00 0.00 46 1025.5
20210518193916 26 228 6.4 8.0 0.00 0.00 0.00 45 1025.5
20210518193413 26 52 0.0 8.0 0.00 0.00 0.00 47 1025.5
20210518192911 26 248 0.0 4.8 0.00 0.00 0.00 46 1025.8
20210518192409 26 215 4.8 8.0 0.00 0.00 0.00 43 1025.8
20210518191906 27 198 6.4 24.1 0.00 0.00 0.00 41 1025.8
20210518191401 26 150 1.6 16.1 0.00 0.00 0.00 45 1025.8
20210518190855 26 214 4.8 16.1 0.00 0.00 0.00 43 1025.8
20210518190354 26 194 8.0 11.3 0.00 0.00 0.00 42 1025.8
20210518185844 26 227 22.5 27.4 0.00 0.00 0.00 44 1025.8
20210518185339 26 181 0.0 8.0 0.00 0.00 0.00 44 1025.8
20210518184837 26 144 0.0 4.8 0.00 0.00 0.00 46 1026.3
20210518184335 26 161 3.2 4.8 0.00 0.00 0.00 44 1025.8
20210518183834 26 196 0.0 4.8 0.00 0.00 0.00 46 1025.8
20210518183329 25 163 1.6 8.0 0.00 0.00 0.00 45 1026.3
20210518182821 25 108 0.0 8.0 0.00 0.00 0.00 45 1026.3
20210518182320 25 200 4.8 16.1 0.00 0.00 0.00 46 1026.3
20210518181819 25 46 3.2 8.0 0.00 0.00 0.00 44 1026.3
20210518181315 25 97 3.2 4.8 0.00 0.00 0.00 47 1026.3
20210518180813 25 196 8.0 8.0 0.00 0.00 0.00 46 1026.3
20210518180308 25 107 0.0 4.8 0.00 0.00 0.00 48 1026.3
20210518175804 25 143 3.2 8.0 0.00 0.00 0.00 47 1026.6
20210518175300 25 207 0.0 8.0 0.00 0.00 0.00 48 1026.6
20210518174800 25 225 0.0 4.8 0.00 0.00 0.00 46 1026.6
20210518174252 25 80 1.6 11.3 0.00 0.00 0.00 47 1026.6
20210518173748 25 143 0.0 8.0 0.00 0.00 0.00 46 1026.6
20210518173248 25 191 3.2 8.0 0.00 0.00 0.00 45 1026.6
20210518172741 25 43 1.6 8.0 0.00 0.00 0.00 47 1026.9
20210518172241 25 208 1.6 8.0 0.00 0.00 0.00 44 1026.9
20210518171739 25 42 1.6 16.1 0.00 0.00 0.00 49 1026.9
20210518171236 25 164 3.2 8.0 0.00 0.00 0.00 48 1026.9
20210518170732 25 148 3.2 8.0 0.00 0.00 0.00 47 1026.9
20210518170228 25 98 1.6 8.0 0.00 0.00 0.00 45 1026.9
20210518165726 25 200 0.0 8.0 0.00 0.00 0.00 48 1026.9
20210518165223 25 130 0.0 4.8 0.00 0.00 0.00 47 1026.9
20210518164717 25 137 0.0 4.8 0.00 0.00 0.00 45 1026.9
20210518164213 25 161 0.0 4.8 0.00 0.00 0.00 51 1027.3
20210518163712 25 245 0.0 8.0 0.00 0.00 0.00 47 1027.3
20210518163210 25 204 1.6 4.8 0.00 0.00 0.00 48 1027.3
20210518162709 25 133 1.6 11.3 0.00 0.00 0.00 48 1026.9
20210518162202 24 227 6.4 11.3 0.00 0.00 0.00 46 1026.9
20210518161700 24 191 3.2 4.8 0.00 0.00 0.00 48 1027.3
20210518161155 24 207 0.0 8.0 0.00 0.00 0.00 50 1027.3
20210518160652 24 111 3.2 11.3 0.00 0.00 0.00 48 1027.3
20210518160146 24 172 0.0 8.0 0.00 0.00 0.00 49 1027.3
20210518155642 25 197 3.2 4.8 0.00 0.00 0.00 49 1027.3
20210518155137 24 42 1.6 8.0 0.00 0.00 0.00 46 1027.3
20210518154634 24 108 0.0 4.8 0.00 0.00 0.00 48 1027.3
20210518154129 24 194 0.0 8.0 0.00 0.00 0.00 47 1027.3
20210518153620 24 156 0.0 0.0 0.00 0.00 0.00 49 1027.6
20210518153118 23 69 6.4 8.0 0.00 0.00 0.00 47 1027.3
20210518152614 24 43 3.2 8.0 0.00 0.00 0.00 51 1027.3
20210518152113 23 72 11.3 11.3 0.00 0.00 0.00 49 1027.3
20210518151609 23 130 0.0 4.8 0.00 0.00 0.00 49 1027.3
20210518151107 23 91 4.8 11.3 0.00 0.00 0.00 50 1027.3
20210518150604 23 234 0.0 4.8 0.00 0.00 0.00 50 1027.3
20210518150059 23 134 0.0 8.0 0.00 0.00 0.00 51 1027.6
20210518145550 23 129 3.2 11.3 0.00 0.00 0.00 51 1027.3
20210518145049 23 105 4.8 8.0 0.00 0.00 0.00 54 1027.3
20210518144547 22 108 1.6 11.3 0.00 0.00 0.00 54 1027.3
20210518144040 23 44 0.0 4.8 0.00 0.00 0.00 54 1027.3
20210518143540 22 110 1.6 4.8 0.00 0.00 0.00 57 1027.6
20210518143033 22 73 4.8 11.3 0.00 0.00 0.00 56 1027.6
20210518142531 22 359 3.2 8.0 0.00 0.00 0.00 57 1027.3
20210518142028 22 63 4.8 8.0 0.00 0.00 0.00 58 1027.3
20210518141523 22 42 4.8 8.0 0.00 0.00 0.00 59 1027.3
20210518141021 22 62 6.4 11.3 0.00 0.00 0.00 60 1027.3
20210518140521 21 96 1.6 8.0 0.00 0.00 0.00 60 1027.6
20210518140016 21 56 8.0 11.3 0.00 0.00 0.00 60 1027.6
20210518135511 22 105 1.6 4.8 0.00 0.00 0.00 59 1027.6
20210518135007 22 112 1.6 8.0 0.00 0.00 0.00 62 1027.6
20210518134503 21 128 0.0 4.8 0.00 0.00 0.00 61 1027.6
20210518134002 20 70 4.8 8.0 0.00 0.00 0.00 64 1027.3
20210518133451 21 108 0.0 8.0 0.00 0.00 0.00 65 1027.6
20210518132947 20 113 3.2 8.0 0.00 0.00 0.00 67 1027.3
20210518132443 20 158 0.0 4.8 0.00 0.00 0.00 66 1027.6
20210518131942 20 66 4.8 11.3 0.00 0.00 0.00 68 1027.6
20210518131438 20 65 4.8 8.0 0.00 0.00 0.00 69 1027.3
20210518130933 20 117 1.6 8.0 0.00 0.00 0.00 69 1027.6
20210518130431 20 125 0.0 4.8 0.00 0.00 0.00 71 1027.3
20210518125929 19 102 3.2 4.8 0.00 0.00 0.00 71 1027.6
20210518125423 18 110 1.6 4.8 0.00 0.00 0.00 74 1027.3
20210518124918 18 43 1.6 4.8 0.00 0.00 0.00 75 1027.3
20210518124408 18 115 1.6 8.0 0.00 0.00 0.00 76 1027.6
20210518123907 18 163 1.6 8.0 0.00 0.00 0.00 76 1027.6
20210518123407 18 203 0.0 4.8 0.00 0.00 0.00 78 1027.3
20210518122906 17 68 0.0 4.8 0.00 0.00 0.00 79 1027.6
20210518122401 17 87 3.2 4.8 0.00 0.00 0.00 80 1027.3
20210518121859 16 94 1.6 4.8 0.00 0.00 0.00 80 1027.3
20210518121352 16 77 0.0 8.0 0.00 0.00 0.00 81 1027.3
20210518120849 16 141 0.0 4.8 0.00 0.00 0.00 82 1027.3
20210518120345 16 111 1.6 4.8 0.00 0.00 0.00 81 1026.9
20210518115842 16 73 0.0 0.0 0.00 0.00 0.00 84 1027.3
20210518115337 15 79 0.0 0.0 0.00 0.00 0.00 88 1027.3
20210518114833 13 112 0.0 0.0 0.00 0.00 0.00 94 1027.3
20210518114332 12 82 0.0 0.0 0.00 0.00 0.00 96 1026.6
20210518113830 12 108 0.0 0.0 0.00 0.00 0.00 98 1026.9
20210518113327 12 108 0.0 0.0 0.00 0.00 0.00 99 1026.9
20210518112815 11 108 0.0 0.0 0.00 0.00 0.00 99 1026.9
20210518112311 11 108 0.0 0.0 0.00 0.00 0.00 99 1026.6
20210518111809 11 108 0.0 0.0 0.00 0.00 0.00 99 1026.6
20210518111305 10 108 0.0 0.0 0.00 0.00 0.00 99 1026.6
20210518110801 10 79 0.0 0.0 0.00 0.00 0.00 99 1026.6
20210518110259 10 157 0.0 0.0 0.00 0.00 0.00 99 1026.6
20210518105759 10 171 0.0 0.0 0.00 0.00 0.00 99 1026.6
20210518105255 10 139 0.0 0.0 0.00 0.00 0.00 99 1026.3
20210518104750 10 157 0.0 0.0 0.00 0.00 0.00 99 1026.3
20210518104246 10 151 0.0 0.0 0.00 0.00 0.00 99 1026.3
20210518103742 9 121 0.0 0.0 0.00 0.00 0.00 99 1025.8
20210518103237 9 170 0.0 0.0 0.00 0.00 0.00 99 1025.8
20210518102734 9 171 0.0 0.0 0.00 0.00 0.00 99 1025.8
20210518102232 9 177 0.0 0.0 0.00 0.00 0.00 99 1026.3
20210518101729 8 200 0.0 0.0 0.00 0.00 0.00 99 1025.8
20210518101228 7 200 0.0 0.0 0.00 0.00 0.00 99 1025.8
20210518100721 7 200 0.0 0.0 0.00 0.00 0.00 99 1025.8
20210518100220 7 200 0.0 0.0 0.00 0.00 0.00 99 1025.8
20210518095718 8 200 0.0 0.0 0.00 0.00 0.00 99 1025.8
20210518095217 8 200 0.0 0.0 0.00 0.00 0.00 99 1025.5
20210518094713 8 200 0.0 0.0 0.00 0.00 0.00 99 1025.5
20210518094209 8 200 0.0 0.0 0.00 0.00 0.00 99 1025.8
20210518093703 8 200 0.0 0.0 0.00 0.00 0.00 99 1025.5
20210518093156 7 200 0.0 0.0 0.00 0.00 0.00 99 1025.5
20210518092656 7 200 0.0 0.0 0.00 0.00 0.00 99 1025.5
20210518092149 7 200 0.0 0.0 0.00 0.00 0.00 99 1025.5
20210518091648 7 200 0.0 0.0 0.00 0.00 0.00 99 1025.5
20210518091146 8 200 0.0 0.0 0.00 0.00 0.00 99 1025.5
20210518090641 8 200 0.0 0.0 0.00 0.00 0.00 99 1025.5
20210518090137 8 110 0.0 0.0 0.00 0.00 0.00 99 1025.5
20210518085632 10 110 0.0 0.0 0.00 0.00 0.00 99 1025.8
20210518085124 10 110 0.0 0.0 0.00 0.00 0.00 99 1025.8
20210518084620 10 110 0.0 0.0 0.00 0.00 0.00 99 1025.8
20210518084118 10 110 0.0 0.0 0.00 0.00 0.00 99 1025.8
20210518083609 8 110 0.0 0.0 0.00 0.00 0.00 99 1025.5
20210518083058 8 110 0.0 0.0 0.00 0.00 0.00 99 1025.5
20210518082556 9 110 0.0 0.0 0.00 0.00 0.00 99 1025.5
20210518082054 9 110 0.0 0.0 0.00 0.00 0.00 99 1025.5
20210518081549 9 110 0.0 0.0 0.00 0.00 0.00 98 1025.1
20210518081044 10 110 0.0 0.0 0.00 0.00 0.00 98 1025.1
20210518080541 10 110 0.0 0.0 0.00 0.00 0.00 98 1025.5
20210518080035 10 110 0.0 0.0 0.00 0.00 0.00 98 1025.5
20210518075535 10 110 0.0 0.0 0.00 0.00 0.00 98 1025.1
20210518075033 10 110 0.0 0.0 0.00 0.00 0.00 97 1025.5
20210518074531 10 110 0.0 0.0 0.00 0.00 0.00 97 1025.1
20210518074025 11 109 0.0 0.0 0.00 0.00 0.00 97 1025.1
20210518073522 11 109 0.0 0.0 0.00 0.00 0.00 97 1025.1
20210518073017 11 108 0.0 0.0 0.00 0.00 0.00 97 1025.1
20210518072512 11 91 0.0 0.0 0.00 0.00 0.00 97 1025.1
20210518072008 11 124 0.0 0.0 0.00 0.00 0.00 97 1025.1
20210518071501 11 133 0.0 0.0 0.00 0.00 0.00 98 1025.1
20210518070958 10 181 0.0 0.0 0.00 0.00 0.00 98 1025.5
20210518070453 10 188 0.0 0.0 0.00 0.00 0.00 96 1025.5
20210518065948 10 211 0.0 0.0 0.00 0.00 0.00 96 1025.5
20210518065440 10 211 0.0 0.0 0.00 0.00 0.00 95 1025.5
20210518064937 10 211 0.0 0.0 0.00 0.00 0.00 95 1025.5
20210518064436 10 211 0.0 0.0 0.00 0.00 0.00 94 1025.5
20210518063936 11 194 0.0 0.0 0.00 0.00 0.00 93 1025.5
20210518063433 11 127 0.0 0.0 0.00 0.00 0.00 93 1025.1
20210518062928 11 106 0.0 0.0 0.00 0.00 0.00 93 1025.1
20210518062425 11 101 0.0 0.0 0.00 0.00 0.00 93 1025.5
20210518061922 11 143 0.0 0.0 0.00 0.00 0.00 93 1025.5
20210518061418 11 143 0.0 0.0 0.00 0.00 0.00 93 1025.5
20210518060916 11 165 0.0 0.0 0.00 0.00 0.00 94 1025.5
20210518060413 11 208 0.0 0.0 0.00 0.00 0.00 94 1025.5
20210518055909 11 215 0.0 0.0 0.00 0.00 0.00 93 1025.1
20210518055405 11 189 0.0 0.0 0.00 0.00 0.00 93 1025.5
20210518054903 11 196 0.0 0.0 0.00 0.00 0.00 94 1025.5
20210518054359 11 209 0.0 0.0 0.00 0.00 0.00 94 1025.5
20210518053853 11 230 0.0 0.0 0.00 0.00 0.00 94 1025.1
20210518053350 11 231 0.0 0.0 0.00 0.00 0.00 93 1025.1
20210518052849 11 232 0.0 0.0 0.00 0.00 0.00 92 1025.5
20210518052341 11 232 0.0 0.0 0.00 0.00 0.00 92 1025.5
20210518051840 11 232 0.0 0.0 0.00 0.00 0.00 91 1025.5
20210518051334 11 232 0.0 0.0 0.00 0.00 0.00 91 1025.5
20210518050830 11 232 0.0 0.0 0.00 0.00 0.00 90 1025.1
20210518050325 11 232 0.0 0.0 0.00 0.00 0.00 89 1025.5
20210518045821 11 232 0.0 0.0 0.00 0.00 0.00 89 1025.5
20210518045318 11 229 0.0 0.0 0.00 0.00 0.00 88 1025.5
20210518044816 12 225 0.0 0.0 0.00 0.00 0.00 88 1025.5
20210518044314 12 214 0.0 0.0 0.00 0.00 0.00 86 1025.5
20210518043811 12 222 0.0 0.0 0.00 0.00 0.00 86 1025.5
20210518043303 12 225 0.0 0.0 0.00 0.00 0.00 85 1025.1
20210518042801 12 230 0.0 0.0 0.00 0.00 0.00 87 1025.5
20210518042259 12 236 0.0 0.0 0.00 0.00 0.00 87 1025.5
20210518041757 12 237 0.0 0.0 0.00 0.00 0.00 86 1025.5
20210518041256 12 236 0.0 0.0 0.00 0.00 0.00 85 1025.5
20210518040754 12 236 0.0 0.0 0.00 0.00 0.00 85 1025.5
20210518040250 12 220 0.0 0.0 0.00 0.00 0.00 84 1025.5
20210518035744 13 218 0.0 0.0 0.00 0.00 0.00 84 1025.5
20210518035244 12 239 0.0 0.0 0.00 0.00 0.00 85 1025.1
20210518034740 13 239 0.0 0.0 0.00 0.00 0.00 84 1025.5
20210518034236 13 239 0.0 0.0 0.00 0.00 0.00 83 1025.5
20210518033731 13 217 0.0 0.0 0.00 0.00 0.00 83 1025.5
20210518033223 13 217 0.0 0.0 0.00 0.00 0.00 81 1025.5
20210518032721 14 185 0.0 0.0 0.00 0.00 0.00 78 1025.5
20210518032220 15 93 0.0 0.0 0.00 0.00 0.00 77 1025.5
20210518031716 15 178 0.0 0.0 0.00 0.00 0.00 77 1025.1
20210518031212 15 182 0.0 0.0 0.00 0.00 0.00 75 1025.5
20210518030708 15 109 0.0 0.0 0.00 0.00 0.00 74 1025.1
20210518030203 15 168 0.0 0.0 0.00 0.00 0.00 74 1025.5
20210518025701 15 179 0.0 0.0 0.00 0.00 0.00 73 1025.1
20210518025153 16 177 0.0 0.0 0.00 0.00 0.00 72 1025.5
20210518024651 16 175 0.0 0.0 0.00 0.00 0.00 71 1025.1
20210518024147 16 123 0.0 0.0 0.00 0.00 0.00 72 1025.1
20210518023642 16 117 0.0 0.0 0.00 0.00 0.00 72 1025.1
20210518023138 16 119 0.0 4.8 0.00 0.00 0.00 72 1025.1
20210518022633 16 92 1.6 4.8 0.00 0.00 0.00 72 1024.8
20210518022133 16 97 1.6 4.8 0.00 0.00 0.00 72 1025.1
20210518021627 16 112 0.0 4.8 0.00 0.00 0.00 72 1024.8
20210518021122 16 121 0.0 4.8 0.00 0.00 0.00 72 1024.8
20210518020617 16 112 0.0 0.0 0.00 0.00 0.00 71 1024.8
20210518020113 16 85 0.0 0.0 0.00 0.00 0.00 71 1024.8
20210518015607 16 107 0.0 4.8 0.00 0.00 0.00 70 1024.8
20210518015105 16 121 0.0 0.0 0.00 0.00 0.00 69 1024.8
20210518014559 16 172 0.0 4.8 0.00 0.00 0.00 68 1024.5
20210518014058 17 153 0.0 4.8 0.00 0.00 0.00 68 1024.5
20210518013558 17 77 0.0 4.8 0.00 0.00 0.00 67 1024.5
20210518013053 17 100 0.0 4.8 0.00 0.00 0.00 67 1024.5
20210518012551 17 79 0.0 4.8 0.00 0.00 0.00 66 1024.5
20210518012047 17 114 0.0 4.8 0.00 0.00 0.00 64 1024.5
20210518011545 17 112 0.0 4.8 0.00 0.00 0.00 64 1024.1
20210518011041 17 117 0.0 4.8 0.00 0.00 0.00 64 1024.1
20210518010534 17 79 3.2 4.8 0.00 0.00 0.00 65 1024.5
20210518010034 17 116 0.0 4.8 0.00 0.00 0.00 66 1024.1
20210518005526 17 109 0.0 0.0 0.00 0.00 0.00 68 1024.1
20210518005022 18 112 0.0 0.0 0.00 0.00 0.00 68 1024.1
20210518004517 18 180 0.0 0.0 0.00 0.00 0.00 67 1024.5
20210518004012 18 202 0.0 0.0 0.00 0.00 0.00 66 1024.5
20210518003507 18 130 0.0 0.0 0.00 0.00 0.00 65 1024.1
20210518003005 18 106 0.0 0.0 0.00 0.00 0.00 65 1024.1
20210518002501 18 120 0.0 0.0 0.00 0.00 0.00 64 1024.1
20210518001959 18 138 0.0 0.0 0.00 0.00 0.00 63 1024.1
20210518001457 19 46 0.0 0.0 0.00 0.00 0.00 62 1024.1
20210518000951 19 95 0.0 4.8 0.00 0.00 0.00 61 1024.1
20210518000450 20 174 0.0 4.8 0.00 0.00 0.00 60 1024.1
20210517235944 20 172 0.0 4.8 0.00 0.00 0.00 60 1024.5
20210517235440 20 113 0.0 4.8 0.00 0.00 0.00 58 1024.1
20210517234938 20 156 0.0 8.0 0.00 0.00 0.00 58 1023.8
20210517234433 20 67 1.6 4.8 0.00 0.00 0.00 57 1023.8
20210517233929 20 37 1.6 8.0 0.00 0.00 0.00 57 1024.1
20210517233426 20 72 1.6 11.3 0.00 0.00 0.00 56 1023.8
20210517232917 20 64 3.2 8.0 0.00 0.00 0.00 56 1024.1
20210517232416 21 116 0.0 0.0 0.00 0.00 0.00 57 1023.8
20210517231912 21 78 0.0 8.0 0.00 0.00 0.00 56 1024.1
20210517231405 21 120 1.6 8.0 0.00 0.00 0.00 55 1024.1
20210517230904 22 41 0.0 0.0 0.00 0.00 0.00 51 1023.8
20210517230401 22 202 0.0 4.8 0.00 0.00 0.00 50 1024.1
20210517225857 22 167 1.6 8.0 0.00 0.00 0.00 50 1024.1
20210517225354 22 142 3.2 8.0 0.00 0.00 0.00 47 1024.1
20210517224849 22 180 0.0 4.8 0.00 0.00 0.00 48 1024.1
20210517224343 22 220 4.8 8.0 0.00 0.00 0.00 48 1023.8
20210517223833 22 194 1.6 8.0 0.00 0.00 0.00 47 1023.8
20210517223331 22 170 4.8 11.3 0.00 0.00 0.00 46 1023.8
20210517222829 22 180 4.8 11.3 0.00 0.00 0.00 46 1023.8
20210517222322 23 215 4.8 8.0 0.00 0.00 0.00 45 1023.8
20210517221816 23 211 0.0 0.0 0.00 0.00 0.00 47 1023.8
20210517221316 23 222 0.0 4.8 0.00 0.00 0.00 44 1023.8
20210517220815 23 165 0.0 8.0 0.00 0.00 0.00 46 1023.8
20210517220313 23 194 0.0 4.8 0.00 0.00 0.00 47 1023.8
20210517215809 23 223 0.0 4.8 0.00 0.00 0.00 48 1023.8
20210517215308 23 209 8.0 11.3 0.00 0.00 0.00 45 1023.8
20210517214806 23 205 9.7 11.3 0.00 0.00 0.00 44 1023.8
20210517214303 23 250 14.5 24.1 0.00 0.00 0.00 43 1023.8
20210517213801 24 216 6.4 8.0 0.00 0.00 0.00 45 1023.8